This demonstration page uses our WeatherBlox Daily Observations layout. Learn more.

Left ArrowRight Arrow

30.21309, -93.2044

Hourly Observations for May 1, 2015

Temp ( °F °C ) Dew Point ( °F °C ) Humidity (%) Winds ( mph kmh ) Pressure ( in mb ) Visibility ( mi km ) Precip ( " mm )
12:15 am 00:15 Clear 67 19.7 55 12.9 65 65 W 6 9 30.00 1016 10 16 0.00 0.00
12:35 am 00:35 Clear 67 19.4 56 13.4 68 68 W 6 9 30.00 1016 10 16 0.00 0.00
12:55 am 00:55 Clear 66 19 56 13.5 71 71 W 5 7 30.00 1016 10 16 0.00 0.00
1:15 am 01:15 Clear 66 19 56 13.2 69 69 W 6 9 30.00 1016 10 16 0.00 0.00
1:35 am 01:35 Clear 66 18.7 55 13 70 70 W 6 9 30.00 1016 10 16 0.00 0.00
1:55 am 01:55 Clear 66 19 54 12.3 65 65 W 9 15 30.00 1016 10 16 0.00 0.00
2:15 am 02:15 Clear 66 19.1 54 12 64 64 W 8 13 29.97 1015 10 16 0.00 0.00
2:35 am 02:35 Clear 66 18.7 54 12.2 66 66 W 7 11 29.97 1015 10 16 0.00 0.00
2:55 am 02:55 Clear 66 18.7 54 12.1 66 66 W 9 15 29.97 1015 10 16 0.00 0.00
3:15 am 03:15 Clear 65 18.5 54 12.2 67 67 W 8 13 29.97 1015 10 16 0.00 0.00
3:35 am 03:35 Partly Cloudy 64 18 55 12.6 71 71 W 5 7 29.97 1015 10 16 0.00 0.00
3:55 am 03:55 Partly Cloudy 64 18 55 12.7 71 71 W 7 11 29.97 1015 10 16 0.00 0.00
4:15 am 04:15 Clear 64 17.9 55 13 73 73 W 6 9 29.97 1015 10 16 0.00 0.00
4:35 am 04:35 Clear 65 18.1 56 13.1 73 73 W 12 19 29.97 1015 10 16 0.00 0.00
4:55 am 04:55 Clear 65 18.4 55 12.5 69 69 W 9 15 29.97 1015 10 16 0.00 0.00
5:15 am 05:15 Clear 64 17.8 54 12.2 70 70 W 7 11 30.00 1016 10 16 0.00 0.00
6:00 am 06:00 Mostly Clear 63 17 54 12 73 73 WNW 7 11 30.00 1016 10 16 0.00 0.00
6:55 am 06:55 Partly Cloudy 61 16 54 12 77 77 WNW 12 19 30.03 1017 10 16 0.00 0.00
7:45 am 07:45 Partly Cloudy 64 18 55 13 73 73 W 8 13 30.03 1017 10 16 0.00 0.00
8:45 am 08:45 Mostly Cloudy 66 19 55 13 68 68 W 12 19 30.06 1018 10 16 0.00 0.00
9:45 am 09:45 Mostly Cloudy 70 21 55 13 60 60 NW 12 19 30.06 1018 10 16 0.00 0.00
10:55 am 10:55 Partly Cloudy 75 24 57 14 54 54 NW 12 19 30.06 1018 10 16 0.00 0.00
12:55 pm 12:55 Partly Cloudy 81 27 54 12 39 39 WNW 3 6 30.06 1018 10 16 0.00 0.00
1:45 pm 13:45 Partly Cloudy 81 27 54 12 39 39 WNW 3 6 30.06 1018 10 16 0.00 0.00
7:50 pm 19:50 Partly Cloudy 77 25 55 13 47 47 SSW 6 9 30.00 1016 10 16 0.00 0.00
9:50 pm 21:50 Partly Cloudy 72 22 59 15 65 65 SSW 7 11 30.03 1017 10 16 0.00 0.00
10:15 pm 22:15 Partly Cloudy 72 22.2 58 14.6 62 62 SW 6 9 30.06 1018 10 16 0.00 0.00
10:35 pm 22:35 Clear 73 22.6 57 14 58 58 WSW 7 11 30.06 1018 10 16 0.00 0.00
10:55 pm 22:55 Clear 73 22.5 57 13.7 58 58 WSW 7 11 30.06 1018 10 16 0.00 0.00
11:15 pm 23:15 Clear 72 22.1 56 13.5 58 58 WSW 8 13 30.06 1018 10 16 0.00 0.00
11:35 pm 23:35 Clear 72 22.1 56 13.2 57 57 WSW 8 13 30.06 1018 10 16 0.00 0.00
11:55 pm 23:55 Mostly Cloudy 71 21.9 56 13.6 59 59 W 7 11 30.06 1018 10 16 0.00 0.00

Powered by AerisWeather